Regional Weather Roundup
Issued by NWS

Home | Current Version | Previous Version | Graphics & Text | Print | Product List | Glossary On
Versions: 1 2 3 4 5 6 7 8 9 10 11 12 13 14 15 16 17 18 19 20 21 22 23 24 25 26 27 28 29 30 31 32 33 34 35 36 37 38 39 40 41 42 43 44 45 46 47 48 49 50
000
ASUS45 KBOI 070910
RWRID

IDAHO REGIONAL WEATHER ROUNDUP
NATIONAL WEATHER SERVICE BOISE ID
300 AM MDT TUE JUL 07 2015

NOTE: "FAIR" INDICATES FEW OR NO CLOUDS BELOW 12000 FEET
WITH NO SIGNIFICANT WEATHER AND/OR OBSTRUCTIONS TO VISIBILITY

IDZ012-014-071000-
SOUTHWEST IDAHO


CITY           SKY/WX    TMP DP  RH WIND       PRES   REMARKS
BOISE          CLOUDY    77  48  35 SE6       29.96R
CALDWELL       CLOUDY    72  52  49 CALM      29.96S
MOUNTAIN HOME  CLOUDY    71  49  45 E9        29.98R
$$

IDZ016-017-071000-
SOUTHCENTRAL IDAHO


CITY           SKY/WX    TMP DP  RH WIND       PRES   REMARKS
BURLEY         MOCLDY    65  52  62 E8        30.07S
JEROME         PTCLDY    67  50  54 E9        30.06S
TWIN FALLS     PTCLDY    73  49  42 SE8       30.04F
$$

IDZ019>023-071000-
SOUTHEAST IDAHO


CITY           SKY/WX    TMP DP  RH WIND       PRES   REMARKS
IDAHO FALLS    MOCLDY    57  53  86 NW7       30.11F
POCATELLO      CLEAR     66  49  54 NE5       30.09F
REXBURG        MOCLDY    58  50  75 CALM      30.12F
$$

IDZ006-010-011-018-031-032-071000-
CENTRAL IDAHO MOUNTAINS


CITY           SKY/WX    TMP DP  RH WIND       PRES   REMARKS
MCCALL         CLEAR     54  45  71 CALM      30.12S
HAILEY         PTCLDY    63  52  67 NW8       30.17S
STANLEY          N/A     43  40  89 CALM      30.26S
SALMON         CLEAR     59  46  63 CALM      30.09S
CHALLIS        CLEAR     57  51  80 CALM      30.17S
$$

IDZ002-004-006-007-026-071000-
NORTHERN IDAHO


CITY           SKY/WX    TMP DP  RH WIND       PRES   REMARKS
LEWISTON       CLEAR     74  40  29 SE5       29.88S
LOWELL           N/A     63  53  70 NW3       29.98R
COEUR D`ALENE  PTCLDY    64  52  63 E6        29.93F
MULLAN PASS    CLOUDY    64  37  36 SE5       30.18S
$$



USA.gov is the U.S. government's official web portal to all federal, state and local government web resources and services.